SENTINEL-3B

Last updated on Sun Apr 05 2026 00:02:33 GMT+0000 (Coordinated Universal Time)

1 43437U 18039A 26094.20265473 .00000209 00000+0 10455-3 0 9990 2 43437 98.6297 162.7795 0001539 112.5289 247.6055 14.26736051413571
UTC large
Height (km)
Speed (km/s)
/
Latitude / Longitude
Inclination (degrees)
Orbital Period (minutes)
Azimuth
Elevation
Range (km)
Doppler Factor

Next 0 passes for location: London (51.5072 / 0.1276)

Sorry there are no passes over London.